Location: Newark
(45.9167°N, 5.5000°E)
Time: 19:52:50
(UTC+00:00)

N. Korean satellite - Pass Details

Date: 28 January 2020
Orbit: 456 x 505 km, 97.2° (Epoch: 26 February)

Event Time Altitude Azimuth Distance (km) Brightness Sun altitude
Rises 05:59:20 0° 5° (N) 2,548 10.1 -11.6°
Reaches altitude 10° 06:01:28 10° 358° (N) 1,672 9.1 -11.3°
Maximum altitude 06:04:51 40° 288° (WNW) 735 7.0 -10.7°
Drops below altitude 10° 06:08:15 10° 218° (SW) 1,684 9.1 -10.1°
Sets 06:10:25 0° 211° (SSW) 2,569 10.1 -9.8°
